[[{"header":{"parameterUnit":"m.s-1","parameterCategory":1,"la1":30.2991,"la2":30.254,"lo1":-89.0895,"lo2":-89.0444,"dy":0.0017,"dx":0.0017,"nx":28,"ny":28,"refTime":"2025-04-24T09:00:00:Z","depth":0,"parameterNumber":2,"parameterNumberName":"U-component_of_WINDS"},"data":[0,0,0,0,0,0,0,0,0,0,0,0,0,0,0,0,0,0,0,0,0,0,0,0,0,0,0,0,0,0,0,0,0,0,0,0,0,0,0,0,0,0,0,0,0,0,0,0,0,0,0,0,0,0,0,0,0,0,0.8283,0.8283,0,0.8283,0.8283,0.8283,0.827,0.8269,0.8269,0.8269,0.8268,0.8268,0.8269,0,0,0,0,0,0,0,0,0,0,0,0,0,0.8273,0.8273,0.8283,0.8283,0.8283,0.8283,0.8283,0.8283,0.827,0.8269,0.8269,0.8269,0.8268,0.8268,0.8269,0,0,0,0,0,0,0,0,0,0,0,0,0,0.8275,0.8273,0.8283,0.8277,0.8276,0.8283,0.8283,0.8283,0.827,0.8269,0.8269,0.8268,0.8268,0.8268,0.8269,0.8281,0,0,0.827,0.827,0,0,0,0,0,0,0,0,0.8275,0.8276,0.8278,0.8277,0.8277,0.8276,0.8279,0.8282,0.827,0.8272,0.8269,0.8268,0.8271,0.8271,0.8272,0.8281,0.8281,0.827,0.827,0.827,0.8271,0,0,0,0,0,0,0,0.8275,0.8276,0.8283,0.8278,0.8277,0.8274,0.8274,0.8279,0.8274,0.8272,0.8271,0.8271,0.8271,0.8272,0.8272,0.8281,0.827,0.827,0.8271,0.8271,0.83,0.8301,0,0,0,0,0,0,0.8276,0.8276,0.8283,0.8283,0.8275,0.8274,0.8274,0.8277,0.8274,0.8273,0.8272,0.8271,0.8271,0.8271,0.8272,0.8286,0.827,0.8271,0.8271,0.83,0.83,0.8301,0,0,0,0,0,0,0.8276,0.8277,0.8283,0.8279,0.828,0.8275,0.8278,0.8277,0.8278,0.8274,0.8273,0.8274,0.8271,0.8271,0.8279,0.8286,0.8271,0.8271,0.8299,0.83,0.8301,0.8315,0,0,0,0,0,0,0.8275,0.8277,0.8282,0.8279,0.828,0.829,0.8278,0.8277,0.8279,0.8277,0.8276,0.8275,0.827,0.8278,0.8279,0.8286,0.8272,0.8299,0.83,0.83,0.8314,0.8316,0.8318,0,0,0,0,0,0.8275,0.8286,0.8282,0.8283,0.8286,0.8291,0.8291,0.8286,0.8279,0.8284,0.8282,0.8275,0.8285,0.8279,0.828,0.8287,0.8298,0.8299,0.83,0.8313,0.8316,0.8318,0,0,0,0,0,0,0.8289,0.8285,0.8281,0.8291,0.8291,0.8289,0.8294,0.8289,0.8291,0.829,0.8283,0.8283,0.8291,0.829,0.8284,0.8299,0.829,0.8292,0.83,0.8302,0.8304,0.8304,0.8272,0,0,0,0,0,0.8293,0.8298,0.8294,0.8304,0.8304,0.8299,0.8301,0.8297,0.8297,0.8297,0.8295,0.8295,0.8298,0.83,0.8303,0.8314,0.8313,0.8319,0.8321,0.8323,0.8324,0.8329,0.8332,0.8305,0.8305,0.8305,0,0,0.8302,0.8301,0.8304,0.8306,0.8306,0.831,0.8299,0.8305,0.8308,0.8298,0.8304,0.8303,0.8303,0.8312,0.8316,0.8311,0.8332,0.8325,0.8326,0.8326,0.8331,0.8333,0.8336,0.8306,0.8305,0.8305,0,0,0.832,0.832,0.8327,0.8327,0.8327,0.8323,0.8325,0.8323,0.8322,0.8329,0.8321,0.8325,0.833,0.833,0.8331,0.8349,0.8342,0.835,0.8361,0.8366,0.8368,0.837,0.8375,0.8377,0.8351,0.8351,0.8351,0,0.8331,0.8337,0.8332,0.8337,0.8338,0.833,0.8337,0.8337,0.8337,0.8338,0.8333,0.834,0.8339,0.8348,0.8352,0.8353,0.8354,0.835,0.8368,0.837,0.8371,0.8377,0.8379,0.8352,0.8352,0.8352,0.8352,0,0.8351,0.8355,0.8361,0.8362,0.8363,0.837,0.8365,0.8367,0.8363,0.836,0.8367,0.8366,0.8368,0.837,0.8366,0.8378,0.8375,0.8369,0.836,0.8375,0.838,0.8382,0.8353,0.8353,0.8352,0.8352,0,0,0.8377,0.8374,0.8376,0.8376,0.8375,0.8378,0.8384,0.8386,0.8388,0.8389,0.8393,0.8398,0.8392,0.8393,0.8389,0.8394,0.8407,0.8387,0.8387,0.839,0.8419,0.8423,0.8426,0.8403,0.8404,0.8404,0.8419,0,0.8394,0.8404,0.8399,0.8409,0.8413,0.8404,0.8409,0.8409,0.8407,0.8409,0.8407,0.841,0.8403,0.8403,0.8407,0.8404,0.8413,0.8403,0.8407,0.8407,0.8406,0.8428,0.8433,0.8447,0.8421,0.8421,0.8422,0,0.8415,0.8416,0.8427,0.8424,0.8426,0.843,0.8431,0.8434,0.8433,0.8431,0.8432,0.8427,0.8432,0.8424,0.8431,0.8424,0.8426,0.8424,0.8425,0.8424,0.8415,0.8428,0.8452,0.8454,0.8425,0.8425,0.8424,0,0.8432,0.8437,0.8443,0.8443,0.8441,0.8444,0.8443,0.8442,0.8444,0.8445,0.8445,0.8447,0.8448,0.8449,0.8444,0.8439,0.8452,0.8443,0.845,0.845,0.8452,0.8452,0.8476,0.8454,0.8454,0.8454,0.8454,0,0.8451,0.8458,0.8451,0.8455,0.8462,0.8456,0.8463,0.8461,0.8461,0.8464,0.8457,0.846,0.8454,0.8457,0.8453,0.8459,0.846,0.8458,0.8457,0.8458,0.8458,0.8458,0.8457,0.8455,0.8455,0.8455,0.8455,0,0.8471,0.8467,0.8474,0.8471,0.847,0.8475,0.8473,0.8476,0.8474,0.8478,0.8479,0.8474,0.8477,0.8472,0.8475,0.8472,0.848,0.8478,0.848,0.8479,0.8486,0.8485,0.851,0.8513,0.849,0.8491,0.8491,0,0.8483,0.8488,0.8485,0.8487,0.8487,0.849,0.8491,0.8485,0.8487,0.8486,0.849,0.8492,0.8493,0.8498,0.8495,0.8497,0.8494,0.8502,0.8494,0.8495,0.8493,0.8492,0.8493,0.8504,0.8504,0.8504,0.8505,0,0.8504,0.8502,0.8504,0.8505,0.8507,0.8508,0.8508,0.851,0.8504,0.8506,0.8508,0.8509,0.8512,0.8514,0.8515,0.8514,0.8508,0.8507,0.8509,0.851,0.8511,0.851,0.8484,0.8507,0.8506,0.8506,0.8506,0.8506,0.852,0.8524,0.8523,0.8525,0.8524,0.8525,0.8528,0.8525,0.8527,0.8528,0.8525,0.8529,0.8527,0.8528,0.8528,0.853,0.8526,0.8529,0.8529,0.853,0.853,0.8511,0.853,0.853,0.853,0.853,0.853,0,0.854,0.8539,0.8541,0.8542,0.8543,0.8538,0.8538,0.854,0.8543,0.8542,0.8544,0.8547,0.8549,0.8546,0.8547,0.855,0.8547,0.855,0.8549,0.8549,0.8534,0.8532,0.8552,0.8552,0.8552,0.8552,0.8552,0.8552,0.8551,0.8557,0.8554,0.856,0.8558,0.8561,0.8562,0.8562,0.8561,0.8565,0.8566,0.8564,0.8563,0.8564,0.8565,0.8564,0.8565,0.8569,0.8567,0.8553,0.855,0.8548,0.8546,0.8569,0.8569,0.8582,0.8582,0.8582]},{"header":{"parameterUnit":"m.s-1","parameterCategory":1,"la1":30.2991,"la2":30.254,"lo1":-89.0895,"lo2":-89.0444,"dy":0.0017,"dx":0.0017,"nx":28,"ny":28,"refTime":"2025-04-24T09:00:00:Z","depth":0,"parameterNumber":3,"parameterNumberName":"V-component_of_WINDS"},"data":[0,0,0,0,0,0,0,0,0,0,0,0,0,0,0,0,0,0,0,0,0,0,0,0,0,0,0,0,0,0,0,0,0,0,0,0,0,0,0,0,0,0,0,0,0,0,0,0,0,0,0,0,0,0,0,0,0,0,3.6516,3.6516,0,3.6532,3.6532,3.6533,3.6485,3.6484,3.6483,3.6481,3.6496,3.6498,3.6499,0,0,0,0,0,0,0,0,0,0,0,0,0,3.6441,3.6442,3.6516,3.6516,3.6516,3.6532,3.6532,3.6533,3.6486,3.6484,3.6482,3.6481,3.6495,3.6497,3.65,0,0,0,0,0,0,0,0,0,0,0,0,0,3.6467,3.6443,3.6516,3.6495,3.6493,3.6532,3.6532,3.6533,3.6486,3.6484,3.6482,3.648,3.6495,3.6497,3.65,3.6559,0,0,3.6508,3.6509,0,0,0,0,0,0,0,0,3.6465,3.647,3.6497,3.6496,3.6494,3.6505,3.6511,3.6542,3.6487,3.6489,3.6481,3.6479,3.65,3.6502,3.651,3.656,3.6561,3.6508,3.651,3.6511,3.6512,0,0,0,0,0,0,0,3.6464,3.6469,3.6522,3.6498,3.6496,3.6484,3.6485,3.6517,3.6506,3.6488,3.6485,3.6488,3.6499,3.6508,3.651,3.6561,3.6508,3.651,3.6512,3.6513,3.666,3.6662,0,0,0,0,0,0,3.6465,3.6467,3.6522,3.6523,3.6474,3.6487,3.6488,3.6503,3.6506,3.6504,3.6489,3.6485,3.6504,3.6507,3.6511,3.658,3.6511,3.6513,3.6515,3.6658,3.666,3.6663,0,0,0,0,0,0,3.6463,3.647,3.6521,3.6494,3.65,3.649,3.6508,3.6505,3.6514,3.6507,3.6505,3.6501,3.6503,3.6507,3.6548,3.658,3.6514,3.6517,3.6655,3.6659,3.6662,3.672,0,0,0,0,0,0,3.6461,3.647,3.6493,3.6495,3.6501,3.6559,3.651,3.6507,3.6519,3.6513,3.6517,3.6515,3.6501,3.6544,3.655,3.6582,3.6519,3.6652,3.6656,3.6661,3.6715,3.6725,3.6733,0,0,0,0,0,3.6459,3.6508,3.6494,3.6501,3.653,3.6561,3.6564,3.6548,3.6521,3.6544,3.654,3.6515,3.6576,3.6549,3.6555,3.6589,3.665,3.6655,3.666,3.6711,3.6723,3.6733,0,0,0,0,0,0,3.6509,3.6508,3.6493,3.6544,3.6553,3.6553,3.6581,3.6561,3.6577,3.6571,3.655,3.6551,3.6596,3.6596,3.6566,3.6646,3.6608,3.6615,3.6644,3.6656,3.6665,3.6663,3.6521,0,0,0,0,0,3.6527,3.6552,3.655,3.6595,3.6601,3.659,3.6603,3.659,3.6597,3.6601,3.6599,3.6607,3.6628,3.6642,3.666,3.6715,3.6715,3.6741,3.675,3.6758,3.6764,3.6792,3.6804,3.668,3.668,3.668,0,0,3.6562,3.6565,3.6582,3.6606,3.6611,3.6637,3.6593,3.6623,3.6642,3.6605,3.6643,3.6643,3.665,3.6698,3.6719,3.6699,3.6798,3.6765,3.6771,3.6773,3.6799,3.6811,3.6821,3.6684,3.6683,3.6683,0,0,3.6641,3.6646,3.6684,3.669,3.6699,3.6692,3.6701,3.6704,3.6702,3.6741,3.6713,3.6735,3.6771,3.6778,3.6785,3.6867,3.6844,3.6873,3.6921,3.6949,3.6959,3.6967,3.6995,3.7006,3.6879,3.6879,3.688,0,3.6684,3.6723,3.6706,3.6738,3.6748,3.6717,3.6755,3.6762,3.6776,3.6784,3.6762,3.6807,3.681,3.6858,3.6878,3.6886,3.6895,3.6872,3.6959,3.6967,3.6975,3.7001,3.7012,3.6883,3.6882,3.6882,3.6882,0,3.6775,3.6803,3.6832,3.6848,3.6862,3.6897,3.6884,3.6901,3.6887,3.6881,3.6921,3.6923,3.6941,3.6952,3.6938,3.6999,3.6987,3.6962,3.6923,3.699,3.7015,3.7025,3.6888,3.6887,3.6886,3.6885,0,0,3.6885,3.6891,3.6902,3.6908,3.6916,3.6936,3.6969,3.6988,3.7002,3.7013,3.704,3.7072,3.7049,3.7058,3.7045,3.707,3.7133,3.7042,3.7042,3.7058,3.7199,3.7217,3.7229,3.7118,3.712,3.7122,3.7198,0,3.6962,3.7019,3.7005,3.7062,3.7087,3.7057,3.7086,3.7093,3.709,3.7109,3.7105,3.7127,3.7096,3.7102,3.7125,3.712,3.7161,3.7115,3.7142,3.7143,3.7141,3.7242,3.7261,3.7332,3.7208,3.7209,3.721,0,3.7059,3.7074,3.7134,3.7137,3.7147,3.7173,3.7189,3.7209,3.7216,3.7211,3.7222,3.7204,3.7236,3.7197,3.724,3.721,3.722,3.722,3.7222,3.7223,3.718,3.7245,3.7355,3.7366,3.7226,3.7224,3.7223,0,3.7132,3.7168,3.7208,3.7214,3.7219,3.7238,3.7241,3.7246,3.7259,3.7272,3.728,3.7297,3.7306,3.732,3.7306,3.728,3.7352,3.7312,3.7348,3.7348,3.7364,3.7363,3.7476,3.7372,3.7372,3.7371,3.7371,0,3.7219,3.7256,3.7241,3.7266,3.7306,3.729,3.733,3.7329,3.7334,3.7358,3.7333,3.7356,3.7337,3.7358,3.7347,3.7384,3.7389,3.7385,3.7382,3.7387,3.7388,3.7393,3.7388,3.7374,3.7374,3.7373,3.7373,0,3.7308,3.7299,3.7341,3.7342,3.7343,3.7373,3.7374,3.7396,3.7391,3.7421,3.7427,3.7418,3.7441,3.7429,3.7453,3.7446,3.7494,3.7484,3.7491,3.7488,3.7525,3.7521,3.7645,3.766,3.7547,3.7548,3.7549,0,3.7363,3.7391,3.7396,3.741,3.7415,3.7438,3.7451,3.7435,3.7449,3.746,3.7481,3.7502,3.7517,3.7555,3.755,3.7568,3.7558,3.76,3.7561,3.7565,3.7558,3.7556,3.7559,3.7608,3.7609,3.7611,3.7611,0,3.7463,3.7457,3.7476,3.7495,3.751,3.7524,3.7535,3.7547,3.7532,3.7549,3.7572,3.7585,3.7609,3.763,3.7645,3.7647,3.7627,3.7624,3.7633,3.7638,3.7641,3.764,3.7512,3.7621,3.762,3.7619,3.7619,3.7619,3.7536,3.756,3.7567,3.7589,3.7596,3.7607,3.7628,3.7625,3.7645,3.7664,3.7653,3.7681,3.7687,3.7705,3.771,3.7731,3.7714,3.7727,3.773,3.7734,3.7738,3.7639,3.7733,3.7733,3.7733,3.7733,3.7732,0,3.7634,3.7637,3.7658,3.7674,3.7692,3.7672,3.7683,3.7699,3.7723,3.7731,3.7748,3.7774,3.7794,3.7791,3.7809,3.7826,3.7818,3.7832,3.783,3.7831,3.7753,3.7743,3.7839,3.7839,3.7839,3.7839,3.7839,3.7838,3.7686,3.7725,3.772,3.7762,3.7765,3.7792,3.78,3.7809,3.7816,3.7847,3.7864,3.7862,3.7865,3.7883,3.7901,3.7899,3.7907,3.7924,3.7919,3.7847,3.7836,3.7826,3.7816,3.7926,3.7926,3.7995,3.7996,3.7996]}]]